Simultaneous Nadir Overpasses (SNOs) Predictions

Prediction of SNOs between METOP-A and NOAA-19 Satellite Orbit:

Table of predicted SNOs for the next 14.0 days since TLE Epoch: 3/17/2018
Index Date (METOP-A) Time (METOP-A) Lat,Lon (METOP-A) SZA (METOP-A ) Date (NOAA-19) Time (NOAA-19) Lat,Lon (NOAA-19) SZA (NOAA-19 ) Distance(km) Time Diff (sec)
1 03/27/2018 03:38:56 -78.60, -45.27 103.90 03/27/2018 03:37:50 -78.60, -48.86 103.99 78.89 66
2 03/27/2018 04:29:44 78.28, 120.25 75.72 03/27/2018 04:28:48 78.31, 120.22 75.75 3.38 56
3 03/27/2018 05:20:25 -78.31, -72.30 104.27 03/27/2018 05:19:43 -78.30, -72.43 104.28 3.05 42
4 03/27/2018 06:11:05 78.30, 95.00 75.72 03/27/2018 06:10:48 78.27, 95.01 75.68 3.75 17
5 03/27/2018 07:01:47 -78.28, -97.76 104.32 03/27/2018 07:01:44 -78.29, -97.88 104.32 2.84 3
6 03/27/2018 07:52:27 78.28, 69.54 75.66 03/27/2018 07:52:49 78.26, 69.56 75.65 2.35 22
7 03/27/2018 08:43:09 -78.26,-123.22 104.37 03/27/2018 08:43:44 -78.25,-123.10 104.38 3.24 35
8 03/27/2018 09:33:49 78.26, 44.08 75.61 03/27/2018 09:34:50 78.25, 44.12 75.61 1.17 61




NCC Satellite Simultaneous Nadir Overpasses (SNOs) Prediction Service
